Theta_e
346 346 346 346 345 341 337 340 342 344 346 339 336 333 331 326 328 336 337 335 334 335 336 337 336 337 338 336 331 331 331 331 332 334 334 338 345 345 342 339 338 341 338
344 345 345 344 344 336 336 344 344 341 337 335 333 327 324 328 336 338 337 337 337 336 336 336 337 337 335 325 326 326 327 328 330 331 335 334 335 343 342 340 340 340 337
345 344 345 343 340 330 340 346 341 341 334 332 328 331 336 337 338 336 336 336 335 334 333 333 334 333 329 323 321 325 336 335 332 331 336 336 336 339 339 343 341 338 337
343 344 344 344 332 332 345 348 343 338 332 328 334 336 337 334 335 334 335 334 333 332 331 331 330 330 332 339 332 345 343 339 338 337 337 338 340 338 338 342 340 337 337
342 340 342 341 328 340 347 343 341 333 327 329 332 334 331 327 331 334 333 332 330 330 329 329 330 334 338 342 347 347 342 341 340 339 337 335 338 339 339 338 339 337 337
339 338 343 335 330 344 345 340 336 327 324 328 330 327 325 324 333 333 331 331 331 332 334 334 335 337 341 342 344 340 337 336 336 336 336 336 335 337 340 342 338 337 336
337 341 339 329 334 344 344 340 332 322 322 323 324 323 319 319 319 324 326 329 330 330 332 333 334 338 342 342 340 338 337 336 335 333 335 337 338 341 341 340 340 339 339
336 338 335 335 342 345 344 340 331 323 322 322 323 323 318 316 315 318 323 322 324 328 327 331 334 340 341 338 335 333 332 332 332 333 336 337 339 340 338 337 337 338 339
337 337 333 332 342 344 342 337 329 322 322 324 325 324 319 317 319 322 321 323 323 323 324 328 337 339 337 335 333 331 329 329 329 333 336 337 337 337 337 335 336 335 335
339 337 335 335 343 343 341 335 326 322 323 327 327 324 322 321 319 320 322 323 323 322 324 328 336 337 334 332 330 327 328 330 332 334 335 335 336 336 335 334 334 333 331
341 338 334 335 344 342 338 334 325 323 323 327 330 329 325 323 323 323 323 324 323 322 325 328 335 333 330 326 326 327 329 331 331 333 334 335 335 334 333 332 331 330 329
340 338 332 337 348 343 338 334 325 323 326 328 331 331 329 326 325 325 325 325 325 321 327 331 334 331 326 324 327 330 331 332 332 333 333 331 332 331 330 329 329 329 328
337 338 332 335 345 343 339 335 326 324 325 330 331 332 330 327 327 327 327 326 325 321 326 331 332 328 326 326 328 329 330 330 330 331 331 330 328 327 327 326 324 324 324
339 337 332 333 333 340 335 333 326 325 325 330 332 332 331 328 327 327 325 324 325 321 321 325 327 327 326 326 325 326 326 327 329 329 328 327 325 323 323 322 321 321 320
338 337 333 330 333 339 333 334 329 327 327 329 332 332 330 329 328 327 325 323 324 323 321 321 323 325 326 324 324 323 323 324 326 323 325 325 322 322 321 321 320 319 319
342 338 334 330 331 336 333 334 331 331 333 334 334 331 330 330 328 326 324 324 324 323 323 322 321 324 324 323 323 323 322 321 321 322 323 323 322 322 321 321 320 319 318
344 341 334 331 331 333 334 334 333 333 336 336 334 332 330 329 328 327 326 324 323 324 324 323 321 324 323 323 323 323 323 322 320 319 318 321 321 322 322 321 321 320 319
344 343 337 334 330 332 339 339 334 334 336 337 333 331 330 329 327 326 324 322 321 321 323 321 321 322 322 322 323 323 323 323 321 318 317 317 320 321 322 322 321 320 320
342 343 341 339 334 334 342 342 336 336 337 336 333 332 330 328 326 324 322 321 320 320 317 318 323 322 320 321 322 322 322 322 322 319 316 316 317 319 320 322 321 321 320
340 342 342 340 338 339 342 341 338 338 336 332 332 333 330 327 325 323 321 319 318 319 316 318 322 322 322 321 320 322 322 322 322 321 317 316 316 317 317 319 320 320 320
338 340 341 341 339 338 340 338 336 333 332 332 332 332 330 329 326 324 321 317 317 318 320 320 319 319 319 317 321 319 318 320 323 322 320 317 316 316 316 317 318 319 319
339 340 340 339 339 339 338 336 335 333 333 333 333 332 331 329 326 324 322 319 323 320 321 320 319 319 317 317 319 318 320 320 319 320 321 320 318 316 316 316 317 317 316
340 341 341 340 340 337 336 335 335 335 334 333 333 331 330 329 327 324 321 321 322 317 316 318 318 318 319 318 315 316 319 322 318 319 319 319 320 319 317 316 315 316 316
339 342 342 340 339 338 338 337 336 336 335 335 335 333 331 329 327 327 321 321 321 316 316 315 318 318 316 317 315 314 315 318 318 316 318 321 319 318 318 318 317 316 316
339 340 342 342 341 339 338 337 337 337 337 336 334 333 331 331 329 327 323 324 324 321 315 316 318 319 317 316 315 315 315 315 314 311 315 312 317 320 319 317 317 317 315
340 341 342 342 341 340 341 339 339 339 338 337 334 332 331 330 329 327 326 322 323 322 317 316 317 316 316 316 314 314 314 313 313 312 311 311 312 312 312 314 314 315 314
Wind_Speed
18 18 16 15 14 14 14 14 14 14 13 12 12 11 12 12 12 12 12 11 10 9 9 9 10 10 9 7 6 7 6 6 8 10 10 10 10 10 10 10 12 12 13
25 20 18 17 15 15 16 14 13 12 11 10 10 11 11 11 12 12 12 11 11 10 10 10 10 9 7 7 6 7 6 6 9 10 10 9 8 8 7 9 11 11 12
24 21 19 18 16 16 17 13 11 10 9 9 10 10 11 11 12 11 12 11 11 11 10 10 9 7 8 7 8 9 9 8 10 11 11 10 8 7 7 8 9 11 12
26 21 19 17 17 17 15 13 10 9 9 10 10 10 10 11 11 11 12 12 11 10 9 9 9 9 9 13 12 14 14 13 14 14 13 10 7 8 7 7 9 10 12
23 20 18 16 17 18 15 12 10 9 10 10 9 10 9 10 11 12 13 12 12 12 11 11 10 11 11 15 16 17 18 18 18 17 14 10 9 9 10 8 10 10 11
22 20 18 17 18 17 14 12 10 10 10 10 9 9 10 10 11 12 13 14 14 15 15 12 11 11 15 15 17 17 17 17 17 16 14 12 11 9 10 11 11 11 10
23 20 18 17 17 15 13 11 10 11 11 11 10 10 10 11 13 13 15 16 15 15 14 12 9 12 14 15 16 15 16 15 14 14 13 12 11 11 12 12 13 13 13
24 20 17 15 15 13 11 10 9 10 10 11 12 12 12 13 14 16 17 17 16 15 12 14 12 16 16 16 15 15 14 14 12 12 12 12 12 14 14 14 15 16 16
21 19 19 18 15 12 10 9 9 9 9 10 12 13 13 14 16 17 16 17 17 15 12 13 15 16 15 14 14 13 12 11 11 13 13 14 14 15 16 14 16 15 14
20 18 17 18 16 13 11 9 8 8 8 10 10 11 12 14 14 14 14 14 15 16 14 14 15 16 14 13 13 10 10 11 13 14 14 14 16 16 18 18 17 17 13
18 17 17 17 15 14 12 11 10 9 8 9 9 8 9 10 10 10 10 11 13 15 15 13 15 12 12 13 13 12 11 13 14 15 16 18 18 17 19 18 17 17 16
21 21 19 18 16 16 14 12 11 10 8 8 7 6 5 5 6 6 6 8 9 13 15 15 14 13 12 14 16 16 17 16 17 16 17 17 19 18 18 17 17 17 17
24 22 22 21 17 17 13 12 11 10 9 8 5 5 3 2 1 2 2 3 5 10 15 15 14 12 13 16 17 17 15 14 15 18 17 16 16 16 15 14 14 13 13
24 25 23 22 19 19 15 13 13 11 10 8 5 3 3 1 1 1 1 4 5 8 13 12 13 13 12 14 14 16 15 13 15 16 13 13 13 13 12 13 14 13 13
26 25 25 25 22 21 17 14 14 13 11 8 6 4 3 3 1 1 0 2 6 7 8 11 10 13 12 12 12 13 13 13 13 12 13 12 13 12 13 14 14 14 14
24 24 24 25 23 21 19 16 15 13 11 9 6 5 3 3 4 2 3 4 6 8 5 9 11 12 13 12 12 12 12 12 11 11 12 11 10 11 12 12 12 13 13
26 24 26 25 24 22 21 17 16 15 13 10 8 5 4 5 4 3 3 6 7 7 7 3 12 14 13 13 12 12 12 11 10 10 10 11 12 11 10 10 10 11 11
27 27 25 25 25 25 21 17 16 16 15 13 11 8 6 5 4 4 5 8 8 7 9 10 8 15 14 13 13 14 12 12 11 10 10 10 12 11 9 8 8 8 8
26 28 27 26 25 25 21 18 16 16 16 14 13 11 8 5 4 6 8 8 7 8 9 10 11 12 17 17 14 14 14 14 13 12 12 12 12 13 13 11 10 8 7
20 22 27 27 25 24 20 16 16 15 16 17 14 11 8 7 6 5 6 7 7 9 5 6 10 10 11 16 16 16 15 16 16 16 15 15 15 14 14 13 12 11 9
16 20 24 28 26 22 20 17 17 18 17 15 13 11 10 9 7 6 5 7 8 6 6 8 9 9 9 9 10 13 12 15 18 19 18 18 18 17 17 15 16 15 12
17 19 23 25 23 22 24 21 19 18 15 13 11 11 10 9 9 8 7 8 7 7 7 7 7 7 8 10 5 5 2 7 16 23 22 21 22 21 20 20 19 17 16
19 22 24 23 23 24 22 21 15 13 10 13 14 12 10 9 9 10 10 9 7 7 8 8 8 9 11 10 11 4 2 4 2 12 25 25 26 23 23 22 22 22 20
21 22 22 23 24 22 19 20 18 14 13 11 13 13 11 10 10 10 12 11 8 8 8 10 10 10 9 12 9 12 7 4 3 1 7 13 22 23 23 26 26 25 23
18 23 23 22 23 22 21 20 17 13 8 9 8 9 11 12 12 13 14 13 11 10 10 8 11 10 9 9 12 7 9 7 6 3 2 2 9 15 18 17 19 23 22
15 19 20 21 21 21 21 19 16 14 11 10 10 10 11 11 11 13 16 16 13 12 11 10 10 10 10 10 11 12 9 5 7 5 3 5 4 5 5 9 14 23 21
Wind_Direction
156 158 148 134 130 127 117 114 113 111 109 108 107 107 107 104 98 90 88 86 83 80 78 76 74 79 85 91 103 101 108 118 124 120 117 110 101 94 93 82 79 74 70
156 157 149 142 137 131 124 115 123 116 113 110 109 108 103 94 89 84 78 74 73 67 67 71 78 85 91 98 111 110 110 121 130 134 124 115 108 103 93 89 83 79 75
155 155 154 147 142 136 128 126 130 122 113 108 106 97 89 83 79 77 79 76 71 66 62 62 68 72 80 94 104 106 104 114 131 132 121 111 104 102 101 96 88 82 79
154 156 151 146 141 135 127 136 129 116 111 107 97 88 84 80 75 72 72 68 65 63 62 62 64 68 76 80 108 104 102 106 118 125 122 110 107 103 104 106 96 84 76
153 154 147 150 142 137 140 140 129 120 112 106 95 89 77 70 73 75 70 63 58 57 58 64 73 71 88 99 102 102 104 104 108 109 103 102 110 93 110 104 94 92 92
154 153 155 151 146 140 151 142 132 124 114 102 94 84 75 73 76 77 74 72 69 69 67 64 69 81 96 107 107 107 104 103 103 98 96 96 100 111 105 94 93 94 98
157 158 159 154 151 149 149 139 135 130 121 111 103 91 82 77 78 79 81 78 71 65 62 58 70 96 105 104 108 106 102 98 99 96 96 99 97 97 95 96 95 93 92
162 161 158 153 147 152 147 138 133 129 121 114 106 93 85 83 84 90 87 76 66 59 60 61 83 110 113 107 105 104 99 95 90 85 94 95 97 95 93 95 93 91 91
165 164 159 154 151 162 149 145 141 138 127 120 113 94 89 85 89 93 85 76 65 55 70 87 102 112 110 101 94 88 90 95 100 102 99 100 101 97 93 89 83 86 84
168 168 166 158 154 166 158 152 150 146 133 125 115 97 89 91 92 92 87 75 60 62 78 111 117 120 106 100 100 100 98 99 97 100 99 99 99 97 93 85 81 80 86
174 176 173 166 164 176 167 162 162 156 147 141 129 112 94 90 91 90 84 71 65 61 80 116 124 117 108 102 96 94 96 96 97 98 98 98 93 91 90 83 81 79 76
179 184 180 179 177 183 179 172 168 168 162 158 139 131 127 111 99 87 79 74 67 76 90 109 127 120 116 111 109 106 101 102 98 91 86 88 84 81 80 81 81 80 77
185 189 187 185 186 190 187 181 178 180 172 161 162 179 161 162 104 83 55 78 86 102 102 120 126 120 119 121 117 114 114 109 104 97 89 88 84 82 82 84 83 86 83
190 194 193 194 191 192 192 188 188 189 183 179 180 206 235 209 104 114 69 45 140 113 118 127 130 129 128 129 124 123 120 118 114 106 96 90 89 89 92 92 93 91 88
193 198 200 198 199 196 196 196 195 192 188 191 203 228 233 234 280 277 155 86 146 145 137 132 140 140 138 139 135 129 124 120 120 114 109 106 108 103 101 99 99 97 93
199 202 204 206 204 204 200 198 199 196 195 204 210 220 211 225 240 259 147 142 140 173 167 155 156 157 149 152 152 146 139 133 128 123 126 124 125 122 119 115 110 105 101
205 204 205 209 209 208 206 206 204 200 205 210 214 221 219 223 231 236 195 170 159 155 158 148 170 172 164 166 167 165 159 155 147 143 138 141 141 140 137 129 118 111 107
214 207 205 208 212 212 212 213 209 208 213 211 206 218 221 223 225 230 184 167 162 151 154 174 179 176 181 185 187 181 179 179 174 168 161 155 158 159 162 155 148 138 127
218 213 207 207 211 215 215 220 218 219 218 212 204 213 222 224 221 192 180 178 185 180 178 179 190 192 193 196 204 201 196 196 193 192 188 184 181 181 180 181 181 177 167
208 210 210 209 212 215 217 220 222 218 203 198 204 219 224 222 213 210 202 195 197 190 200 206 197 196 196 200 204 214 211 213 213 211 209 204 202 202 200 194 197 201 198
196 200 205 208 210 208 211 196 203 190 195 202 207 223 230 229 220 229 219 199 191 217 207 190 181 189 191 186 185 218 227 233 232 229 225 225 222 220 218 216 215 215 212
190 195 196 205 205 201 195 183 194 198 207 217 227 231 229 227 228 229 228 215 235 217 191 195 203 200 207 201 182 149 187 240 240 235 234 235 236 234 234 232 230 230 229
194 193 192 194 188 188 192 194 204 205 217 226 233 230 229 228 232 231 223 238 242 223 220 224 228 226 220 213 211 179 136 224 234 231 235 240 244 244 247 247 243 242 240
200 196 193 192 194 201 204 206 208 202 217 239 249 247 236 235 233 247 232 240 244 249 245 243 234 234 223 211 211 219 223 189 187 277 237 246 237 243 248 253 251 249 249
202 200 199 199 201 205 209 211 218 216 240 260 268 247 240 243 248 246 239 238 247 255 260 258 232 236 237 228 222 210 213 220 216 181 256 244 222 236 246 251 252 249 249
199 201 201 206 211 216 222 221 224 233 245 255 253 240 246 249 262 248 235 242 248 253 254 249 247 248 243 240 239 230 220 194 207 192 211 231 224 221 247 271 264 247 249